Flag for Nepal Weather past 2 weeks in Pokhara, Nepal

Now
75 °F

Passing clouds.


Feels Like: 78 °F
Forecast: 47 / 82 °F
Wind: 5 mph from South

Location: Kathmandu Airport

Current Time: Oct 21, 2014 at 1:45:29 PM

Latest Report: Oct 21, 2014 at 12:35 PM


Visibility: 5 mi

Pressure: 30.18 "Hg

Humidity: 50%

Dew point: 55 °F

Location of PokharaLocation

Historic Weather in Pokhara — Graph

°F

Pokhara temperature yesterday

Maximum temperature yesterday: 75 °F (at 12:35 PM)
Minimum temperature yesterday: 57 °F (at 1:35 AM)
Average temperature yesterday: 65 °F

Past Weeks' High & Low Weather Summary

 TemperatureHumidityPressure
High82 °F (Oct 6, 12:35 PM)100% (Oct 7, 12:35 AM)30.27 "Hg (Oct 7, 12:35 AM)
Low55 °F (Oct 15, 6:35 AM)39% (Oct 12, 12:35 PM)29.95 "Hg (Oct 10, 3:35 PM)
Average67 °F81%30.10 "Hg
* Reported Oct 6 12:35 PM — Oct 21 12:35 PM, Pokhara, Weather by CustomWeather, © 2014

Note: Actual official high and low records may vary slightly from our data, if they occured in-between our weather recording intervals... More about our weather records

Advertising

Pokhara weather history for previous 24 hours

 ConditionsComfort  
Time TempWeatherWind HumidityBarometerVisibility
12:35 PM
Oct 21
75 °FPassing clouds.5 mph50%30.18 "Hg5 mi
11:35 AM75 °FPassing clouds.No wind57%30.21 "Hg5 mi
10:35 AM72 °FPassing clouds.No wind65%30.24 "Hg5 mi
9:35 AM68 °FPassing clouds.No wind73%30.24 "Hg4 mi
8:35 AM64 °FFog.No wind83%30.24 "Hg3 mi
7:35 AM59 °FFog.No wind94%30.21 "Hg3 mi
6:35 AM57 °FFog.3 mph94%30.18 "Hg2 mi
5:35 AM57 °FPassing clouds.No wind94%30.18 "Hg4 mi
4:35 AM57 °FPassing clouds.No wind100%30.15 "Hg4 mi
3:35 AM57 °FPassing clouds.No wind94%30.15 "Hg4 mi
2:35 AM59 °FPassing clouds.No wind94%30.15 "Hg5 mi
1:35 AM59 °FPassing clouds.No wind94%30.15 "Hg5 mi
12:35 AM61 °FPartly cloudy.No wind88%30.18 "Hg5 mi
11:35 PM
Oct 20
61 °FPassing clouds.No wind94%30.18 "Hg5 mi
8:35 PM63 °FPassing clouds.No wind88%30.15 "Hg5 mi
7:35 PM64 °FPassing clouds.3 mph83%30.15 "Hg5 mi
5:35 PM66 °FPassing clouds.6 mph83%30.09 "HgN/A
4:35 PM70 °FPassing clouds.3 mph69%30.07 "HgN/A
3:35 PM73 °FPassing clouds.8 mph53%30.07 "HgN/A
2:35 PM75 °FScattered clouds.5 mph50%30.07 "HgN/A
1:35 PM73 °FScattered clouds.5 mph53%30.09 "HgN/A
Weather by CustomWeather, © 2014

See weather overviewHow to use our weather pages